Location: Ahausen
(50.4985°N, 8.2722°E)
Time: 11:55:09
(UTC+00:00)

ISS - Visible Passes

Search period start: 03 October 2022 00:00
Search period end: 13 October 2022 00:00
Orbit: 415 x 420 km, 51.6° (Epoch: 03 October)

Date Brightness Start Highest point End Pass type
(mag) Time Alt. Az. Time Alt. Az. Time Alt. Az.
03 Oct -1.2 18:32:27 10° W 18:34:43 17° SW 18:36:59 10° S visible
04 Oct -1.7 17:43:59 10° W 17:46:47 24° SW 17:49:35 10° SSE visible
06 Oct -0.7 17:45:35 10° WSW 17:46:52 12° SW 17:48:08 10° SSW visible
